Location: Unspecified
(35.6961°N, 0.0000°E)
Time: 17:03:29
(UTC+00:00)

Vanguard 1 - All Passes

Search period start: 19 May 2019 00:00
Search period end: 29 May 2019 00:00
Orbit: 653 x 3831 km, 34.3° (Epoch: 13 May)

Date Brightness Start Highest point End Pass type
(mag) Time Alt. Az. Time Alt. Az. Time Alt. Az.
19 May - 10:30:43 10° S 10:33:58 18° SE 10:37:59 10° E daylight
19 May - 12:47:37 10° WSW 12:53:17 67° SSE 13:03:19 10° E daylight
19 May - 15:06:46 10° W 15:14:45 82° S 15:30:15 10° ESE daylight
19 May - 17:26:47 10° W 17:37:55 58° SSW 17:57:26 10° SE daylight
19 May - 19:49:32 10° W 20:02:19 29° SW 20:19:39 10° SSE visible
20 May - 10:50:31 10° SSW 10:54:32 27° SE 10:59:59 10° E daylight
20 May - 13:08:27 10° WSW 13:14:18 76° S 13:24:56 10° E daylight
20 May - 15:27:44 10° W 15:36:01 77° S 15:52:01 10° ESE daylight
20 May - 17:48:00 10° W 17:59:16 49° SSW 18:18:18 10° SE daylight
20 May - 20:12:16 10° W 20:23:42 22° SW 20:38:17 10° S visible
21 May - 11:10:48 10° SW 11:15:13 38° SSE 11:21:38 10° E daylight
21 May - 13:29:19 10° W 13:35:23 81° S 13:46:37 10° E daylight
21 May - 15:48:43 10° W 15:57:16 70° SSW 16:13:38 10° ESE daylight
21 May - 18:09:23 10° W 18:20:39 40° SSW 18:38:45 10° SSE daylight
21 May - 20:36:26 10° WSW 20:45:07 15° SW 20:55:22 10° SSW visible
22 May - 11:31:21 10° SW 11:36:01 52° SSE 11:43:07 10° E daylight
22 May - 13:50:14 10° W 13:56:32 82° S 14:08:18 10° E daylight
22 May - 16:09:43 10° W 16:18:32 61° SSW 16:35:02 10° SE daylight
22 May - 18:31:03 10° W 18:42:02 32° SSW 18:58:43 10° SSE daylight
23 May - 09:34:51 10° S 09:37:38 16° SE 09:40:42 10° ESE daylight
23 May - 11:52:05 10° WSW 11:56:55 65° SSE 12:04:35 10° E daylight
23 May - 14:11:10 10° W 14:17:41 79° S 14:29:58 10° ESE daylight
23 May - 16:30:48 10° W 16:39:49 52° SSW 16:56:10 10° SE daylight
23 May - 18:53:11 10° W 19:03:27 25° SSW 19:18:00 10° SSE daylight
24 May - 09:54:40 10° SSW 09:58:20 25° SSE 10:02:36 10° E daylight
24 May - 12:12:55 10° WSW 12:17:55 75° S 12:26:02 10° E daylight
24 May - 14:32:06 10° W 14:38:51 73° S 14:51:35 10° ESE daylight
24 May - 16:52:01 10° W 17:01:07 43° SSW 17:16:56 10° SE daylight
24 May - 19:16:11 10° WSW 19:24:55 18° SW 19:36:14 10° S visible
25 May - 10:15:01 10° SW 10:19:05 36° SSE 10:24:06 10° E daylight
25 May - 12:33:49 10° W 12:38:57 80° S 12:47:32 10° E daylight
25 May - 14:53:03 10° W 15:00:00 64° SSW 15:13:03 10° ESE daylight
25 May - 17:13:26 10° W 17:22:28 34° SSW 17:37:16 10° SSE daylight
25 May - 19:41:38 10° SW 19:46:28 12° SW 19:51:55 10° SSW visible
26 May - 08:20:00 10° SSE 08:20:35 10° SSE 08:21:09 10° SE daylight
26 May - 10:35:38 10° WSW 10:39:56 50° SSE 10:45:27 10° E daylight
26 May - 12:54:44 10° W 13:00:01 80° S 13:09:03 10° E daylight
26 May - 15:14:03 10° W 15:21:11 54° SSW 15:34:19 10° SE daylight
26 May - 17:35:11 10° W 17:43:50 27° SSW 17:57:02 10° SSE daylight
27 May - 08:38:22 10° SSW 08:41:24 17° SSE 08:44:21 10° ESE daylight
27 May - 10:56:25 10° WSW 11:00:50 63° SSE 11:06:45 10° E daylight
27 May - 13:15:40 10° W 13:21:06 75° S 13:30:32 10° ESE daylight
27 May - 15:35:09 10° W 15:42:24 44° SSW 15:55:17 10° SE daylight
27 May - 17:57:34 10° WSW 18:05:17 20° SSW 18:15:59 10° S daylight
28 May - 08:58:22 10° SSW 09:02:14 26° SSE 09:06:01 10° E daylight
28 May - 11:17:19 10° WSW 11:21:48 74° S 11:28:03 10° E daylight
28 May - 13:36:35 10° W 13:42:11 67° SSW 13:51:58 10° ESE daylight
28 May - 15:56:24 10° W 16:03:39 35° SSW 16:15:53 10° SE daylight
28 May - 18:21:23 10° WSW 18:26:46 13° SSW 18:33:20 10° S daylight
